EW4663 Weather Reports


Display with metric or nautical units.
time (UTC)temp
F
wind
direction
speed
MPH
gust
MPH
rain 1hr
in
rain 24hr
in
rain mn
in
humidity
%
barometer
mb
20210122032036 65 270 1.0 4.0 0.00 0.00 0.00 52 1018.6
20210122031037 65 264 2.0 4.0 0.00 0.00 0.00 52 1019.6
20210122030032 65 275 1.0 3.0 0.00 0.00 0.00 51 1019.6
20210122025027 66 286 2.0 4.0 0.00 0.00 0.00 50 1019.6
20210122024026 66 278 3.0 4.0 0.00 0.00 0.00 49 1019.6
20210122023028 66 270 2.0 5.0 0.00 0.00 0.00 49 1018.6
20210122022027 66 270 4.0 5.0 0.00 0.00 0.00 48 1018.6
20210122021048 67 277 3.0 6.0 0.00 0.00 0.00 47 1019.6
20210122020037 67 281 5.0 6.0 0.00 0.00 0.00 46 1019.6
20210122015026 67 269 3.0 6.0 0.00 0.00 0.00 46 1019.6
20210122014026 67 269 4.0 6.0 0.00 0.00 0.00 45 1019.6
20210122013027 67 270 3.0 6.0 0.00 0.00 0.00 45 1019.6
20210122012041 68 271 5.0 7.0 0.00 0.00 0.00 45 1019.6
20210122011031 68 267 5.0 8.0 0.00 0.00 0.00 44 1019.6
20210122010029 68 275 3.0 6.0 0.00 0.00 0.00 44 1019.6
20210122005024 68 270 4.0 6.0 0.00 0.00 0.00 44 1019.6
20210122004030 69 275 2.0 6.0 0.00 0.00 0.00 44 1019.6
20210122003033 69 273 4.0 6.0 0.00 0.00 0.00 43 1018.6
20210122002025 69 268 4.0 7.0 0.00 0.00 0.00 43 1018.6
20210122001025 69 272 3.0 4.0 0.00 0.00 0.00 44 1018.6
20210122000046 70 270 3.0 5.0 0.00 0.00 0.00 44 1018.6
20210121235041 70 271 2.0 5.0 0.00 0.00 0.00 43 1018.6
20210121234031 70 270 3.0 5.0 0.00 0.00 0.00 44 1018.6
20210121233039 71 276 3.0 6.0 0.00 0.00 0.00 44 1018.6
20210121232027 71 273 4.0 6.0 0.00 0.00 0.00 44 1018.6
20210121231025 71 281 4.0 6.0 0.00 0.00 0.00 44 1018.6
20210121230024 72 269 4.0 7.0 0.00 0.00 0.00 44 1018.6
20210121225031 72 271 4.0 7.0 0.00 0.00 0.00 44 1018.6
20210121224025 72 269 5.0 7.0 0.00 0.00 0.00 44 1018.6
20210121223023 73 277 2.0 10.0 0.00 0.00 0.00 45 1018.6
20210121222030 73 272 4.0 8.0 0.00 0.00 0.00 45 1018.6
20210121221026 73 265 7.0 10.0 0.00 0.00 0.00 45 1017.6
20210121220033 73 287 3.0 6.0 0.00 0.00 0.00 45 1018.6
20210121215025 74 278 6.0 8.0 0.00 0.00 0.00 45 1018.6
20210121214023 74 259 5.0 10.0 0.00 0.00 0.00 45 1018.6
20210121213024 74 270 3.0 20.0 0.00 0.00 0.00 45 1018.6
20210121212023 74 252 4.0 11.0 0.00 0.00 0.00 46 1018.6
20210121211031 75 272 5.0 12.0 0.00 0.00 0.00 46 1018.6
20210121210033 75 260 5.0 13.0 0.00 0.00 0.00 46 1018.6
20210121205023 75 272 4.0 11.0 0.00 0.00 0.00 47 1018.6
20210121204028 75 285 5.0 11.0 0.00 0.00 0.00 47 1018.6
20210121203030 75 252 4.0 8.0 0.00 0.00 0.00 48 1018.6
20210121202026 75 261 6.0 11.0 0.00 0.00 0.00 48 1018.6
20210121201024 74 280 4.0 10.0 0.00 0.00 0.00 49 1018.6
20210121200027 74 284 7.0 12.0 0.00 0.00 0.00 49 1018.6
20210121195025 74 271 6.0 9.0 0.00 0.00 0.00 49 1018.6
20210121194024 74 265 6.0 11.0 0.00 0.00 0.00 49 1018.6
20210121193037 74 271 4.0 11.0 0.00 0.00 0.00 50 1018.6
20210121192029 74 262 9.0 12.0 0.00 0.00 0.00 50 1018.6
20210121191023 74 241 6.0 9.0 0.00 0.00 0.00 51 1018.6
20210121190026 73 261 5.0 9.0 0.00 0.00 0.00 53 1018.6
20210121185026 73 254 6.0 11.0 0.00 0.00 0.00 52 1018.6
20210121184022 72 266 5.0 10.0 0.00 0.00 0.00 55 1019.6
20210121183038 72 260 6.0 11.0 0.00 0.00 0.00 55 1019.6
20210121182022 71 282 6.0 12.0 0.00 0.00 0.00 57 1019.6
20210121181023 71 289 5.0 9.0 0.00 0.00 0.00 59 1019.6
20210121180025 70 262 6.0 10.0 0.00 0.00 0.00 60 1019.6
20210121175024 70 244 4.0 9.0 0.00 0.00 0.00 61 1019.6
20210121174026 69 246 7.0 9.0 0.00 0.00 0.00 62 1019.6
20210121173033 69 253 7.0 11.0 0.00 0.00 0.00 63 1019.6
20210121172030 68 268 4.0 8.0 0.00 0.00 0.00 65 1019.6
20210121171022 67 245 3.0 10.0 0.00 0.00 0.00 66 1020.6
20210121170027 67 274 4.0 10.0 0.00 0.00 0.00 68 1021.6
20210121165033 66 263 6.0 13.0 0.00 0.00 0.00 69 1021.6
20210121164022 66 272 3.0 9.0 0.00 0.00 0.00 71 1021.6
20210121163028 65 278 5.0 8.0 0.00 0.00 0.00 72 1021.6
20210121162023 65 258 3.0 7.0 0.00 0.00 0.00 73 1021.6
20210121161031 64 293 4.0 6.0 0.00 0.00 0.00 75 1021.6
20210121160028 64 282 5.0 6.0 0.00 0.00 0.00 75 1021.6
20210121155025 64 250 3.0 8.0 0.00 0.00 0.00 77 1021.6
20210121154023 63 291 2.0 5.0 0.00 0.00 0.00 79 1022.6
20210121153027 61 0 0.0 6.0 0.00 0.00 0.00 82 1022.6
20210121152021 60 299 3.0 6.0 0.00 0.00 0.00 83 1022.6
20210121151021 59 283 2.0 8.0 0.00 0.00 0.00 84 1022.6
20210121150033 58 281 3.0 6.0 0.00 0.00 0.00 86 1023.6
20210121145023 58 306 3.0 8.0 0.00 0.00 0.00 86 1023.6
20210121144032 57 282 5.0 7.0 0.00 0.00 0.00 86 1023.6
20210121143029 57 297 5.0 6.0 0.00 0.00 0.00 86 1023.6
20210121142021 56 296 4.0 6.0 0.00 0.00 0.00 85 1023.6
20210121141022 55 297 4.0 6.0 0.00 0.00 0.00 84 1023.6
20210121140034 55 304 5.0 6.0 0.00 0.00 0.00 84 1023.6
20210121135026 54 289 2.0 4.0 0.00 0.00 0.00 82 1023.6
20210121134021 53 283 2.0 4.0 0.00 0.00 0.00 82 1022.6
20210121133023 53 286 3.0 4.0 0.00 0.00 0.00 81 1022.6
20210121132040 53 0 0.0 3.0 0.00 0.00 0.00 80 1022.6
20210121131022 52 0 0.0 3.0 0.00 0.00 0.00 79 1023.6
20210121130025 52 314 1.0 2.0 0.00 0.00 0.00 78 1023.6
20210121125020 52 280 1.0 3.0 0.00 0.00 0.00 78 1023.6
20210121124033 51 276 1.0 2.0 0.00 0.00 0.00 77 1022.6
20210121123026 51 0 0.0 1.0 0.00 0.00 0.00 76 1022.6
20210121122032 51 0 0.0 0.0 0.00 0.00 0.00 76 1022.6
20210121121049 51 0 0.0 0.0 0.00 0.00 0.00 75 1022.6
20210121120036 51 0 0.0 0.0 0.00 0.00 0.00 75 1022.6
20210121115043 51 0 0.0 0.0 0.00 0.00 0.00 75 1022.6
20210121114023 51 0 0.0 0.0 0.00 0.00 0.00 74 1022.6
20210121113027 51 0 0.0 1.0 0.00 0.00 0.00 75 1022.6
20210121112040 51 0 0.0 1.0 0.00 0.00 0.00 74 1022.6
20210121111039 51 0 0.0 1.0 0.00 0.00 0.00 74 1022.6
20210121110033 51 0 0.0 0.0 0.00 0.00 0.00 73 1021.6
20210121105027 51 0 0.0 0.0 0.00 0.00 0.00 72 1021.6
20210121104022 51 0 0.0 0.0 0.00 0.00 0.00 72 1022.6
20210121103021 51 0 0.0 0.0 0.00 0.00 0.00 72 1021.6
20210121102023 51 0 0.0 0.0 0.00 0.00 0.00 72 1021.6
20210121101026 51 0 0.0 0.0 0.00 0.00 0.00 71 1021.6
20210121100034 51 0 0.0 0.0 0.00 0.00 0.00 71 1021.6
20210121095023 51 0 0.0 0.0 0.00 0.00 0.00 70 1021.6
20210121094021 51 0 0.0 0.0 0.00 0.00 0.00 70 1021.6
20210121093033 51 0 0.0 0.0 0.00 0.00 0.00 69 1021.6
20210121092022 51 0 0.0 0.0 0.00 0.00 0.00 70 1021.6
20210121091020 51 0 0.0 1.0 0.00 0.00 0.00 69 1022.6
20210121090025 51 0 0.0 2.0 0.00 0.00 0.00 68 1022.6
20210121085024 51 0 0.0 0.0 0.00 0.00 0.00 68 1022.6
20210121084030 51 0 0.0 0.0 0.00 0.00 0.00 68 1022.6
20210121083039 51 0 0.0 0.0 0.00 0.00 0.00 67 1022.6
20210121082035 51 0 0.0 0.0 0.00 0.00 0.00 67 1022.6
20210121081021 52 0 0.0 0.0 0.00 0.00 0.00 67 1022.6
20210121080033 52 0 0.0 0.0 0.00 0.00 0.00 66 1023.6
20210121075028 52 0 0.0 0.0 0.00 0.00 0.00 66 1023.6
20210121074029 52 0 0.0 0.0 0.00 0.00 0.00 66 1023.6
20210121073040 52 0 0.0 0.0 0.00 0.00 0.00 65 1023.6
20210121072028 52 0 0.0 0.0 0.00 0.00 0.00 65 1023.6
20210121071030 52 0 0.0 0.0 0.00 0.00 0.00 64 1023.6
20210121070041 53 0 0.0 0.0 0.00 0.00 0.00 64 1023.6
20210121065025 53 0 0.0 0.0 0.00 0.00 0.00 64 1023.6
20210121064025 53 0 0.0 0.0 0.00 0.00 0.00 63 1023.6
20210121063027 53 0 0.0 1.0 0.00 0.00 0.00 63 1023.6
20210121062037 53 0 0.0 0.0 0.00 0.00 0.00 63 1023.6
20210121061020 54 0 0.0 0.0 0.00 0.00 0.00 62 1023.6
20210121060030 54 0 0.0 0.0 0.00 0.00 0.00 62 1023.6
20210121055037 54 0 0.0 0.0 0.00 0.00 0.00 61 1023.6
20210121054038 54 0 0.0 0.0 0.00 0.00 0.00 61 1022.6
20210121053030 55 0 0.0 0.0 0.00 0.00 0.00 60 1023.6
20210121052028 55 0 0.0 0.0 0.00 0.00 0.00 59 1023.6
20210121051021 55 0 0.0 0.0 0.00 0.00 0.00 59 1023.6
20210121050027 55 0 0.0 0.0 0.00 0.00 0.00 60 1023.6
20210121045025 55 0 0.0 1.0 0.00 0.00 0.00 61 1023.6
20210121044021 56 0 0.0 0.0 0.00 0.00 0.00 60 1023.6
20210121043027 56 0 0.0 1.0 0.00 0.00 0.00 60 1024.6
20210121042021 56 0 0.0 1.0 0.00 0.00 0.00 59 1024.6
20210121041026 56 0 0.0 0.0 0.00 0.00 0.00 58 1024.6
20210121040025 57 0 0.0 0.0 0.00 0.00 0.00 58 1024.6
20210121035028 57 0 0.0 0.0 0.00 0.00 0.00 57 1024.6
20210121034021 57 0 0.0 0.0 0.00 0.00 0.00 57 1024.6
20210121033031 58 0 0.0 0.0 0.00 0.00 0.00 56 1024.6